OAL170 LGAV-LGMT

Flight info

Callsign OAL170
Flight time 0h 56m
Altitude 17000
Route KRO N604 ATSOV
Aircraft TBM8/L-SDFGRWY/S

Departure

Time 2026-05-04 20:23
Airport Athens Eleftherios Venizelos International Airport (LGAV)

Arrival

Time 2026-05-04 21:19
Airport Mytilene International Airport (LGMT)
Time Latitude Longitude Altitude Speed Heading
2026-05-04 20:18 37.92612 23.94014 296 ft 0 kts 217°
2026-05-04 20:19 37.92616 23.94018 296 ft 5 kts 217°
2026-05-04 20:20 37.92664 23.94059 298 ft 5 kts 172°
2026-05-04 20:20 37.92671 23.94054 298 ft 1 kts 124°
2026-05-04 20:20 37.92670 23.94057 298 ft 0 kts 97°
2026-05-04 20:20 37.92666 23.94092 296 ft 8 kts 106°
2026-05-04 20:21 37.92626 23.94177 298 ft 16 kts 124°
2026-05-04 20:21 37.92554 23.94296 300 ft 14 kts 127°
2026-05-04 20:21 37.92530 23.94334 302 ft 9 kts 131°
2026-05-04 20:22 37.92504 23.94378 302 ft 4 kts 121°
2026-05-04 20:22 37.92494 23.94443 303 ft 13 kts 67°
2026-05-04 20:22 37.92591 23.94552 300 ft 22 kts 38°
2026-05-04 20:22 37.92752 23.94706 298 ft 42 kts 37°
2026-05-04 20:23 37.93138 23.95074 287 ft 96 kts 36°
2026-05-04 20:23 37.93781 23.95646 390 ft 124 kts 29°
2026-05-04 20:23 37.94563 23.96221 652 ft 139 kts 33°
2026-05-04 20:23 37.95349 23.97037 972 ft 152 kts 37°
2026-05-04 20:24 37.96203 23.97880 1313 ft 160 kts 35°
2026-05-04 20:24 37.97103 23.98746 1630 ft 165 kts 35°
2026-05-04 20:24 37.98032 23.99631 1941 ft 168 kts 34°
2026-05-04 20:24 37.98977 24.00526 2251 ft 170 kts 34°
2026-05-04 20:25 37.99947 24.01440 2540 ft 177 kts 34°
2026-05-04 20:25 38.00943 24.02386 2835 ft 181 kts 34°
2026-05-04 20:25 38.01956 24.03352 3135 ft 183 kts 34°
2026-05-04 20:25 38.02940 24.04379 3444 ft 184 kts 38°
2026-05-04 20:26 38.03916 24.05402 3733 ft 184 kts 36°
2026-05-04 20:26 38.04932 24.06385 4038 ft 184 kts 34°
2026-05-04 20:26 38.05954 24.07362 4343 ft 183 kts 35°
2026-05-04 20:26 38.06971 24.08341 4653 ft 183 kts 35°
2026-05-04 20:27 38.07984 24.09319 4959 ft 183 kts 35°
2026-05-04 20:27 38.08880 24.10454 5250 ft 185 kts 55°
2026-05-04 20:27 38.09324 24.11995 5532 ft 190 kts 76°
2026-05-04 20:27 38.09218 24.13687 5835 ft 198 kts 101°
2026-05-04 20:28 38.08758 24.15341 6144 ft 198 kts 102°
2026-05-04 20:28 38.08315 24.16976 6454 ft 198 kts 101°
2026-05-04 20:28 38.07868 24.18629 6749 ft 198 kts 101°
2026-05-04 20:28 38.07417 24.20283 7043 ft 198 kts 101°
2026-05-04 20:29 38.06965 24.21941 7332 ft 199 kts 101°
2026-05-04 20:29 38.06512 24.23603 7626 ft 200 kts 101°
2026-05-04 20:29 38.06056 24.25278 7932 ft 201 kts 101°
2026-05-04 20:29 38.05597 24.26962 8230 ft 202 kts 101°
2026-05-04 20:30 38.05135 24.28656 8539 ft 203 kts 101°
2026-05-04 20:30 38.04676 24.30337 8843 ft 205 kts 101°
2026-05-04 20:30 38.04208 24.32048 9161 ft 206 kts 101°
2026-05-04 20:30 38.03737 24.33774 9470 ft 208 kts 101°
2026-05-04 20:31 38.03258 24.35519 9783 ft 210 kts 102°
2026-05-04 20:31 38.02776 24.37280 10094 ft 212 kts 102°
2026-05-04 20:31 38.02291 24.39050 10378 ft 213 kts 102°
2026-05-04 20:31 38.01803 24.40829 10674 ft 213 kts 102°
2026-05-04 20:32 38.01314 24.42611 10965 ft 214 kts 102°
2026-05-04 20:32 38.00824 24.44397 11263 ft 214 kts 102°
2026-05-04 20:32 38.00340 24.46139 11547 ft 211 kts 102°
2026-05-04 20:32 37.99953 24.47905 11850 ft 203 kts 88°
2026-05-04 20:33 38.00058 24.49645 12163 ft 195 kts 69°
2026-05-04 20:33 38.00583 24.51186 12478 ft 188 kts 51°
2026-05-04 20:33 38.01397 24.52461 12791 ft 185 kts 44°
2026-05-04 20:33 38.02222 24.53721 13103 ft 186 kts 44°
2026-05-04 20:34 38.03044 24.54981 13424 ft 183 kts 44°
2026-05-04 20:34 38.03867 24.56225 13727 ft 185 kts 44°
2026-05-04 20:34 38.04695 24.57478 14038 ft 186 kts 44°
2026-05-04 20:34 38.05529 24.58747 14319 ft 188 kts 44°
2026-05-04 20:35 38.06366 24.60019 14603 ft 188 kts 44°
2026-05-04 20:35 38.07206 24.61297 14888 ft 189 kts 44°
2026-05-04 20:35 38.08047 24.62574 15179 ft 189 kts 44°
2026-05-04 20:35 38.08878 24.63839 15476 ft 189 kts 44°
2026-05-04 20:36 38.09720 24.65122 15760 ft 189 kts 44°
2026-05-04 20:36 38.10565 24.66408 16062 ft 190 kts 44°
2026-05-04 20:36 38.11410 24.67695 16365 ft 190 kts 44°
2026-05-04 20:36 38.12256 24.68982 16667 ft 190 kts 44°
2026-05-04 20:37 38.13101 24.70272 16974 ft 190 kts 44°
2026-05-04 20:37 38.13964 24.71583 17113 ft 199 kts 44°
2026-05-04 20:37 38.14876 24.72977 17118 ft 211 kts 45°
2026-05-04 20:37 38.15836 24.74446 17122 ft 220 kts 45°
2026-05-04 20:38 38.16822 24.75952 17125 ft 227 kts 45°
2026-05-04 20:38 38.17847 24.77519 17124 ft 232 kts 45°
2026-05-04 20:38 38.18888 24.79111 17118 ft 236 kts 45°
2026-05-04 20:38 38.19945 24.80728 17119 ft 239 kts 45°
2026-05-04 20:39 38.21011 24.82359 17120 ft 240 kts 45°
2026-05-04 20:39 38.22082 24.84000 17118 ft 242 kts 45°
2026-05-04 20:39 38.23160 24.85651 17117 ft 242 kts 45°
2026-05-04 20:39 38.24238 24.87303 17114 ft 243 kts 45°
2026-05-04 20:40 38.25319 24.88959 17115 ft 243 kts 45°
2026-05-04 20:40 38.26398 24.90616 17118 ft 243 kts 45°
2026-05-04 20:40 38.27468 24.92257 17115 ft 244 kts 45°
2026-05-04 20:40 38.28549 24.93918 17116 ft 244 kts 45°
2026-05-04 20:41 38.29631 24.95579 17117 ft 244 kts 45°
2026-05-04 20:41 38.30714 24.97244 17115 ft 244 kts 45°
2026-05-04 20:41 38.31795 24.98906 17115 ft 243 kts 45°
2026-05-04 20:41 38.32874 25.00567 17114 ft 243 kts 45°
2026-05-04 20:42 38.33953 25.02227 17115 ft 243 kts 44°
2026-05-04 20:42 38.35029 25.03885 17111 ft 243 kts 45°
2026-05-04 20:42 38.36106 25.05545 17111 ft 243 kts 44°
2026-05-04 20:42 38.37180 25.07202 17111 ft 243 kts 44°
2026-05-04 20:43 38.38255 25.08857 17110 ft 242 kts 45°
2026-05-04 20:43 38.39316 25.10496 17109 ft 242 kts 44°
2026-05-04 20:43 38.40388 25.12150 17112 ft 242 kts 45°
2026-05-04 20:43 38.41461 25.13809 17111 ft 242 kts 44°
2026-05-04 20:44 38.42533 25.15464 17111 ft 242 kts 45°
2026-05-04 20:44 38.43603 25.17120 17110 ft 242 kts 45°
2026-05-04 20:44 38.44675 25.18777 17111 ft 242 kts 45°
2026-05-04 20:44 38.45742 25.20429 17110 ft 241 kts 45°
2026-05-04 20:45 38.46811 25.22084 17109 ft 241 kts 45°
2026-05-04 20:45 38.47880 25.23741 17108 ft 241 kts 45°
2026-05-04 20:45 38.48946 25.25392 17110 ft 241 kts 45°
2026-05-04 20:45 38.49998 25.27025 17110 ft 241 kts 45°
2026-05-04 20:46 38.51063 25.28676 17109 ft 241 kts 45°
2026-05-04 20:46 38.52126 25.30328 17108 ft 241 kts 45°
2026-05-04 20:46 38.53191 25.31980 17105 ft 241 kts 45°
2026-05-04 20:46 38.54253 25.33633 17106 ft 241 kts 45°
2026-05-04 20:47 38.55317 25.35286 17107 ft 241 kts 45°
2026-05-04 20:47 38.56380 25.36940 17106 ft 241 kts 45°
2026-05-04 20:47 38.57444 25.38596 17106 ft 240 kts 45°
2026-05-04 20:47 38.58505 25.40248 17105 ft 240 kts 45°
2026-05-04 20:48 38.59567 25.41902 17106 ft 240 kts 45°
2026-05-04 20:48 38.60628 25.43556 17107 ft 240 kts 45°
2026-05-04 20:48 38.61687 25.45208 17105 ft 240 kts 45°
2026-05-04 20:48 38.62749 25.46866 17101 ft 240 kts 45°
2026-05-04 20:49 38.63808 25.48518 17102 ft 240 kts 45°
2026-05-04 20:49 38.64866 25.50172 17104 ft 240 kts 46°
2026-05-04 20:49 38.65912 25.51805 17105 ft 240 kts 46°
2026-05-04 20:49 38.66971 25.53463 17103 ft 240 kts 46°
2026-05-04 20:50 38.68030 25.55118 17104 ft 240 kts 46°
2026-05-04 20:50 38.69085 25.56770 17102 ft 240 kts 46°
2026-05-04 20:50 38.70139 25.58423 17106 ft 239 kts 46°
2026-05-04 20:50 38.71189 25.60068 17104 ft 238 kts 46°
2026-05-04 20:51 38.72236 25.61707 17102 ft 237 kts 46°
2026-05-04 20:51 38.73280 25.63345 17103 ft 237 kts 46°
2026-05-04 20:51 38.74304 25.64952 17105 ft 236 kts 46°
2026-05-04 20:51 38.75344 25.66585 17103 ft 236 kts 46°
2026-05-04 20:52 38.76381 25.68214 17104 ft 236 kts 46°
2026-05-04 20:52 38.77417 25.69843 17104 ft 236 kts 46°
2026-05-04 20:52 38.78452 25.71468 17100 ft 235 kts 46°
2026-05-04 20:52 38.79486 25.73097 17100 ft 235 kts 46°
2026-05-04 20:53 38.80521 25.74725 17102 ft 235 kts 46°
2026-05-04 20:53 38.81559 25.76357 17096 ft 236 kts 46°
2026-05-04 20:53 38.82602 25.78000 17100 ft 237 kts 46°
2026-05-04 20:53 38.83643 25.79644 17062 ft 239 kts 46°
2026-05-04 20:54 38.84646 25.81269 16747 ft 222 kts 47°
2026-05-04 20:54 38.85564 25.82740 16436 ft 208 kts 45°
2026-05-04 20:54 38.86466 25.84129 16121 ft 194 kts 45°
2026-05-04 20:54 38.87292 25.85430 15805 ft 183 kts 44°
2026-05-04 20:55 38.88081 25.86666 15499 ft 176 kts 44°
2026-05-04 20:55 38.88846 25.87870 15195 ft 172 kts 44°
2026-05-04 20:55 38.89595 25.89052 14896 ft 169 kts 44°
2026-05-04 20:55 38.90333 25.90219 14602 ft 167 kts 44°
2026-05-04 20:56 38.91053 25.91360 14318 ft 165 kts 44°
2026-05-04 20:56 38.91775 25.92501 14035 ft 164 kts 44°
2026-05-04 20:56 38.92490 25.93634 13732 ft 163 kts 44°
2026-05-04 20:56 38.93200 25.94758 13408 ft 161 kts 44°
2026-05-04 20:57 38.93904 25.95875 13093 ft 160 kts 44°
2026-05-04 20:57 38.94601 25.96979 12781 ft 159 kts 44°
2026-05-04 20:57 38.95292 25.98075 12479 ft 156 kts 44°
2026-05-04 20:57 38.95954 25.99127 12385 ft 145 kts 44°
2026-05-04 20:58 38.96589 26.00132 12024 ft 145 kts 44°
2026-05-04 20:58 38.97219 26.01144 11567 ft 148 kts 43°
2026-05-04 20:58 38.97881 26.02184 11207 ft 148 kts 44°
2026-05-04 20:58 38.98489 26.03154 11108 ft 135 kts 43°
2026-05-04 20:59 38.98985 26.04186 10712 ft 149 kts 67°
2026-05-04 20:59 38.98955 26.05595 10079 ft 164 kts 88°
2026-05-04 20:59 38.98821 26.07038 9417 ft 161 kts 85°
2026-05-04 20:59 38.98716 26.08471 8700 ft 161 kts 85°
2026-05-04 21:00 38.98613 26.09937 8008 ft 167 kts 86°
2026-05-04 21:00 38.98498 26.11445 7337 ft 169 kts 87°
2026-05-04 21:00 38.98381 26.12890 7084 ft 149 kts 86°
2026-05-04 21:00 38.98289 26.14101 7080 ft 127 kts 84°
2026-05-04 21:01 38.98214 26.15166 7080 ft 115 kts 81°
2026-05-04 21:01 38.98149 26.16178 7076 ft 113 kts 82°
2026-05-04 21:01 38.98075 26.17168 7083 ft 111 kts 82°
2026-05-04 21:01 38.98001 26.18162 7008 ft 116 kts 83°
2026-05-04 21:02 38.97918 26.19207 6935 ft 119 kts 83°
2026-05-04 21:02 38.97841 26.20300 6875 ft 125 kts 84°
2026-05-04 21:02 38.97751 26.21430 6813 ft 128 kts 84°
2026-05-04 21:02 38.97662 26.22579 6748 ft 130 kts 85°
2026-05-04 21:03 38.97568 26.23722 6674 ft 123 kts 86°
2026-05-04 21:03 38.97494 26.24856 6608 ft 129 kts 85°
2026-05-04 21:03 38.97393 26.25964 6523 ft 122 kts 84°
2026-05-04 21:03 38.97317 26.27034 6445 ft 119 kts 84°
2026-05-04 21:04 38.97237 26.28091 6361 ft 118 kts 84°
2026-05-04 21:04 38.96965 26.29109 6265 ft 130 kts 120°
2026-05-04 21:04 38.96402 26.30010 6188 ft 127 kts 115°
2026-05-04 21:04 38.95894 26.30941 6108 ft 127 kts 117°
2026-05-04 21:05 38.95371 26.31863 6030 ft 127 kts 116°
2026-05-04 21:05 38.94849 26.32782 5953 ft 127 kts 117°
2026-05-04 21:05 38.94334 26.33691 5874 ft 127 kts 117°
2026-05-04 21:05 38.93812 26.34608 5797 ft 127 kts 117°
2026-05-04 21:06 38.93291 26.35528 5723 ft 127 kts 117°
2026-05-04 21:06 38.92769 26.36446 5646 ft 127 kts 117°
2026-05-04 21:06 38.92247 26.37366 5570 ft 127 kts 117°
2026-05-04 21:06 38.91727 26.38281 5473 ft 128 kts 117°
2026-05-04 21:07 38.91204 26.39200 5398 ft 127 kts 118°
2026-05-04 21:07 38.90688 26.40112 5323 ft 126 kts 117°
2026-05-04 21:07 38.90179 26.41009 5249 ft 125 kts 117°
2026-05-04 21:07 38.89664 26.41912 5165 ft 125 kts 118°
2026-05-04 21:08 38.89153 26.42811 5093 ft 124 kts 118°
2026-05-04 21:08 38.88646 26.43706 5017 ft 123 kts 116°
2026-05-04 21:08 38.88416 26.44699 4901 ft 115 kts 82°
2026-05-04 21:08 38.88332 26.45747 4749 ft 120 kts 90°
2026-05-04 21:09 38.88218 26.46815 4601 ft 121 kts 88°
2026-05-04 21:09 38.88109 26.47894 4450 ft 122 kts 89°
2026-05-04 21:09 38.88039 26.48614 4351 ft 123 kts 88°
2026-05-04 21:09 38.87897 26.50056 4148 ft 122 kts 89°
2026-05-04 21:10 38.87882 26.51124 3989 ft 116 kts 66°
2026-05-04 21:10 38.88049 26.51780 3889 ft 115 kts 64°
2026-05-04 21:10 38.88248 26.52778 3736 ft 116 kts 67°
2026-05-04 21:10 38.88452 26.53774 3591 ft 115 kts 67°
2026-05-04 21:11 38.88654 26.54768 3436 ft 115 kts 66°
2026-05-04 21:11 38.88853 26.55748 3279 ft 115 kts 67°
2026-05-04 21:11 38.89057 26.56739 3129 ft 115 kts 66°
2026-05-04 21:11 38.89319 26.57683 2968 ft 108 kts 45°
2026-05-04 21:12 38.89847 26.58334 2818 ft 106 kts 38°
2026-05-04 21:12 38.90350 26.59033 2665 ft 107 kts 39°
2026-05-04 21:12 38.90852 26.59709 2602 ft 100 kts 39°
2026-05-04 21:12 38.91318 26.60329 2589 ft 94 kts 38°
2026-05-04 21:13 38.91754 26.60915 2588 ft 88 kts 36°
2026-05-04 21:13 38.92187 26.61487 2589 ft 94 kts 36°
2026-05-04 21:13 38.92662 26.62120 2608 ft 101 kts 39°
2026-05-04 21:13 38.93145 26.62777 2608 ft 104 kts 38°
2026-05-04 21:14 38.93642 26.63450 2610 ft 104 kts 38°
2026-05-04 21:14 38.94142 26.64120 2611 ft 103 kts 38°
2026-05-04 21:14 38.94651 26.64765 2607 ft 101 kts 29°
2026-05-04 21:14 38.95295 26.64998 2604 ft 96 kts
2026-05-04 21:15 38.95958 26.65119 2598 ft 96 kts
2026-05-04 21:15 38.96616 26.65182 2584 ft 92 kts 357°
2026-05-04 21:15 38.97281 26.65096 2387 ft 106 kts 348°
2026-05-04 21:15 38.98000 26.64790 2329 ft 114 kts 336°
2026-05-04 21:16 38.98766 26.64381 2268 ft 122 kts 336°
2026-05-04 21:16 38.99565 26.63942 1851 ft 122 kts 342°
2026-05-04 21:16 39.00330 26.63688 1456 ft 98 kts 347°
2026-05-04 21:16 39.00946 26.63422 1205 ft 90 kts 335°
2026-05-04 21:17 39.01513 26.63083 956 ft 88 kts 332°
2026-05-04 21:17 39.02044 26.62725 850 ft 85 kts 329°
2026-05-04 21:17 39.02567 26.62365 763 ft 87 kts 330°
2026-05-04 21:17 39.03100 26.61995 632 ft 87 kts 325°
2026-05-04 21:18 39.03615 26.61593 505 ft 86 kts 326°
2026-05-04 21:18 39.03774 26.61469 456 ft 86 kts 326°
2026-05-04 21:18 39.04279 26.61079 300 ft 88 kts 324°
2026-05-04 21:19 39.04795 26.60655 143 ft 88 kts 324°
2026-05-04 21:19 39.05301 26.60238 28 ft 84 kts 324°
2026-05-04 21:19 39.05774 26.59857 3 ft 75 kts 326°
2026-05-04 21:19 39.06037 26.59632 3 ft 18 kts 326°
2026-05-04 21:20 39.06082 26.59588 2 ft 8 kts 353°
2026-05-04 21:20 39.06043 26.59671 3 ft 21 kts 148°
2026-05-04 21:20 39.05945 26.59757 3 ft 6 kts 110°
2026-05-04 21:20 39.06004 26.59800 3 ft 18 kts 12°
2026-05-04 21:21 39.06070 26.59796 3 ft 4 kts 351°
2026-05-04 21:21 39.06123 26.59791 3 ft 13 kts 360°
2026-05-04 21:21 39.06165 26.59836 3 ft 0 kts 50°